• In Deutschland
  • Länderverzeichnis
  • Für 7 Tage
  • Wassertemperatur
  • Satellitenkarten
  • Wetterkarte
  • Widgets
  • user-avatar
    Anmelden

    Stündliche Wetter Satif

    Heute, 21 Oktober, Samstag

    Zeit Temperatur Niederschläge Wind Luftdruck Luftfeuchtigkeit
    00:00 +12°C° 0 mm 1 m/S 675 mmHg 87%
    01:00 +12°C° 0 mm 1 m/S 675 mmHg 87%
    02:00 +12°C° 0 mm 1 m/S 675 mmHg 88%
    03:00 +12°C° 0 mm 1 m/S 675 mmHg 89%
    04:00 +11°C° 0 mm 1 m/S 675 mmHg 89%
    05:00 +11°C° 0 mm 1 m/S 675 mmHg 89%
    06:00 +11°C° 0 mm 1 m/S 675 mmHg 90%
    07:00 +12°C° 0 mm 1 m/S 675 mmHg 83%
    08:00 +14°C° 0 mm 1 m/S 676 mmHg 76%
    09:00 +15°C° 0 mm 1 m/S 677 mmHg 69%
    10:00 +16°C° 0 mm 1 m/S 677 mmHg 64%
    11:00 +18°C° 0 mm 1 m/S 677 mmHg 60%
    12:00 +18°C° 0 mm 2 m/S 677 mmHg 56%
    13:00 +18°C° 0 mm 2 m/S 677 mmHg 56%
    14:00 +18°C° 0 mm 2 m/S 677 mmHg 55%
    15:00 +19°C° 0 mm 2 m/S 677 mmHg 55%
    16:00 +18°C° 0 mm 2 m/S 677 mmHg 60%
    17:00 +17°C° 0 mm 2 m/S 676 mmHg 64%
    18:00 +16°C° 0 mm 2 m/S 676 mmHg 69%
    19:00 +16°C° 0 mm 1 m/S 677 mmHg 72%
    20:00 +16°C° 0 mm 1 m/S 677 mmHg 75%
    21:00 +15°C° 0 mm 1 m/S 677 mmHg 79%
    22:00 +15°C° 0 mm 1 m/S 677 mmHg 81%
    23:00 +13°C° 0 mm 0 m/S 677 mmHg 83%

    Morgen, 22 Oktober, Sonntag

    Zeit Temperatur Niederschläge Wind Luftdruck Luftfeuchtigkeit
    00:00 +13°C° 0 mm 0 m/S 676 mmHg 85%
    01:00 +13°C° 0 mm 0 m/S 676 mmHg 85%
    02:00 +12°C° 0 mm 0 m/S 676 mmHg 86%
    03:00 +12°C° 0 mm 0 m/S 676 mmHg 87%
    04:00 +12°C° 0 mm 0 m/S 676 mmHg 88%
    05:00 +12°C° 0 mm 0 m/S 676 mmHg 88%
    06:00 +11°C° 0 mm 0 m/S 675 mmHg 89%
    07:00 +13°C° 0 mm 0 m/S 676 mmHg 81%
    08:00 +15°C° 0 mm 1 m/S 677 mmHg 74%
    09:00 +18°C° 0 mm 1 m/S 677 mmHg 66%
    10:00 +19°C° 0 mm 1 m/S 677 mmHg 61%
    11:00 +19°C° 0 mm 2 m/S 677 mmHg 57%
    12:00 +19°C° 0 mm 2 m/S 677 mmHg 52%
    13:00 +19°C° 0 mm 2 m/S 677 mmHg 52%
    14:00 +20°C° 0 mm 3 m/S 677 mmHg 52%
    15:00 +20°C° 0 mm 3 m/S 676 mmHg 53%
    16:00 +19°C° 0,2 mm 3 m/S 676 mmHg 59%
    17:00 +18°C° 0,2 mm 3 m/S 676 mmHg 66%
    18:00 +17°C° 0,2 mm 3 m/S 676 mmHg 72%
    19:00 +16°C° 0 mm 3 m/S 676 mmHg 76%
    20:00 +16°C° 0 mm 2 m/S 677 mmHg 80%
    21:00 +15°C° 0 mm 2 m/S 677 mmHg 83%
    22:00 +15°C° 0,1 mm 2 m/S 677 mmHg 85%
    23:00 +15°C° 0,1 mm 2 m/S 676 mmHg 86%

    übermorgen, 23 Oktober, Montag

    Zeit Temperatur Niederschläge Wind Luftdruck Luftfeuchtigkeit
    00:00 +14°C° 0,1 mm 2 m/S 676 mmHg 87%
    01:00 +14°C° 0,1 mm 2 m/S 676 mmHg 88%
    02:00 +14°C° 0,1 mm 1 m/S 676 mmHg 88%
    03:00 +14°C° 0,1 mm 1 m/S 675 mmHg 88%
    04:00 +13°C° 0,1 mm 1 m/S 675 mmHg 89%
    05:00 +13°C° 0,1 mm 1 m/S 675 mmHg 89%
    06:00 +13°C° 0,1 mm 1 m/S 675 mmHg 90%
    07:00 +14°C° 0 mm 2 m/S 676 mmHg 85%
    08:00 +14°C° 0 mm 2 m/S 676 mmHg 80%
    09:00 +15°C° 0 mm 2 m/S 677 mmHg 74%
    10:00 +16°C° 0 mm 3 m/S 677 mmHg 69%
    11:00 +16°C° 0 mm 3 m/S 677 mmHg 64%
    12:00 +17°C° 0 mm 3 m/S 677 mmHg 59%
    13:00 +17°C° 0 mm 4 m/S 677 mmHg 57%
    14:00 +17°C° 0 mm 4 m/S 676 mmHg 55%
    15:00 +16°C° 0 mm 5 m/S 676 mmHg 53%
    16:00 +15°C° 0 mm 4 m/S 676 mmHg 59%
    17:00 +14°C° 0 mm 4 m/S 676 mmHg 64%
    18:00 +13°C° 0 mm 4 m/S 676 mmHg 69%
    19:00 +12°C° 0 mm 3 m/S 676 mmHg 73%
    20:00 +12°C° 0 mm 3 m/S 676 mmHg 76%
    21:00 +13°C° 0 mm 2 m/S 676 mmHg 79%
    22:00 +12°C° 0 mm 2 m/S 676 mmHg 80%
    23:00 +12°C° 0 mm 2 m/S 676 mmHg 80%

    24 Oktober, Dienstag

    Zeit Temperatur Niederschläge Wind Luftdruck Luftfeuchtigkeit
    00:00 +12°C° 0 mm 2 m/S 676 mmHg 81%
    01:00 +12°C° 0 mm 2 m/S 676 mmHg 82%
    02:00 +10°C° 0 mm 2 m/S 675 mmHg 83%
    03:00 +10°C° 0 mm 2 m/S 675 mmHg 83%
    04:00 +10°C° 0 mm 2 m/S 675 mmHg 85%
    05:00 +10°C° 0 mm 1 m/S 675 mmHg 86%
    06:00 +10°C° 0 mm 1 m/S 675 mmHg 87%
    07:00 +10°C° 0 mm 2 m/S 675 mmHg 80%
    08:00 +13°C° 0 mm 2 m/S 676 mmHg 73%
    09:00 +14°C° 0 mm 2 m/S 676 mmHg 67%
    10:00 +14°C° 0 mm 3 m/S 676 mmHg 62%
    11:00 +16°C° 0 mm 3 m/S 676 mmHg 58%
    12:00 +17°C° 0 mm 3 m/S 676 mmHg 54%
    13:00 +17°C° 0 mm 4 m/S 676 mmHg 54%
    14:00 +17°C° 0 mm 4 m/S 676 mmHg 54%
    15:00 +17°C° 0 mm 4 m/S 675 mmHg 54%
    16:00 +15°C° 0 mm 4 m/S 675 mmHg 60%
    17:00 +14°C° 0 mm 3 m/S 675 mmHg 65%
    18:00 +13°C° 0 mm 3 m/S 675 mmHg 71%
    19:00 +14°C° 0 mm 2 m/S 675 mmHg 75%
    20:00 +13°C° 0 mm 2 m/S 675 mmHg 78%
    21:00 +13°C° 0 mm 2 m/S 675 mmHg 82%
    22:00 +13°C° 0 mm 2 m/S 675 mmHg 83%
    23:00 +12°C° 0 mm 2 m/S 675 mmHg 84%

    25 Oktober, Mittwoch

    Zeit Temperatur Niederschläge Wind Luftdruck Luftfeuchtigkeit
    00:00 +12°C° 0 mm 2 m/S 675 mmHg 85%
    01:00 +12°C° 0 mm 2 m/S 675 mmHg 85%
    02:00 +12°C° 0 mm 2 m/S 675 mmHg 85%
    03:00 +12°C° 0 mm 2 m/S 675 mmHg 85%
    04:00 +12°C° 0 mm 2 m/S 675 mmHg 85%
    05:00 +12°C° 0 mm 2 m/S 675 mmHg 86%
    06:00 +12°C° 0 mm 1 m/S 675 mmHg 87%
    07:00 +13°C° 0 mm 2 m/S 676 mmHg 80%
    08:00 +14°C° 0 mm 2 m/S 676 mmHg 74%
    09:00 +15°C° 0 mm 2 m/S 677 mmHg 67%
    10:00 +16°C° 0 mm 2 m/S 677 mmHg 60%
    11:00 +17°C° 0 mm 2 m/S 677 mmHg 52%
    12:00 +18°C° 0 mm 2 m/S 677 mmHg 44%
    13:00 +18°C° 0 mm 2 m/S 677 mmHg 43%
    14:00 +18°C° 0 mm 3 m/S 677 mmHg 42%
    15:00 +18°C° 0 mm 3 m/S 677 mmHg 41%
    16:00 +17°C° 0 mm 2 m/S 677 mmHg 46%
    17:00 +16°C° 0 mm 2 m/S 677 mmHg 51%
    18:00 +15°C° 0 mm 2 m/S 677 mmHg 57%
    19:00 +15°C° 0 mm 2 m/S 677 mmHg 59%
    20:00 +14°C° 0 mm 1 m/S 677 mmHg 62%
    21:00 +14°C° 0 mm 1 m/S 677 mmHg 64%
    22:00 +13°C° 0 mm 1 m/S 677 mmHg 64%
    23:00 +13°C° 0 mm 1 m/S 677 mmHg 65%

    26 Oktober, Donnerstag

    Zeit Temperatur Niederschläge Wind Luftdruck Luftfeuchtigkeit
    00:00 +12°C° 0 mm 1 m/S 677 mmHg 65%
    01:00 +12°C° 0 mm 1 m/S 677 mmHg 64%
    02:00 +12°C° 0 mm 1 m/S 676 mmHg 62%
    03:00 +11°C° 0 mm 1 m/S 676 mmHg 61%
    04:00 +11°C° 0 mm 1 m/S 676 mmHg 60%
    05:00 +11°C° 0 mm 1 m/S 676 mmHg 58%
    06:00 +11°C° 0 mm 1 m/S 676 mmHg 57%
    07:00 +12°C° 0 mm 0 m/S 677 mmHg 50%
    08:00 +14°C° 0 mm 0 m/S 678 mmHg 42%
    09:00 +16°C° 0 mm 0 m/S 679 mmHg 35%
    10:00 +17°C° 0 mm 0 m/S 679 mmHg 31%
    11:00 +20°C° 0 mm 1 m/S 679 mmHg 27%
    12:00 +21°C° 0 mm 1 m/S 679 mmHg 23%
    13:00 +21°C° 0 mm 1 m/S 679 mmHg 23%
    14:00 +20°C° 0 mm 2 m/S 678 mmHg 23%
    15:00 +20°C° 0 mm 2 m/S 678 mmHg 23%
    16:00 +19°C° 0 mm 2 m/S 678 mmHg 29%
    17:00 +18°C° 0 mm 2 m/S 678 mmHg 34%
    18:00 +16°C° 0 mm 2 m/S 678 mmHg 39%
    19:00 +16°C° 0 mm 1 m/S 678 mmHg 41%
    20:00 +15°C° 0 mm 1 m/S 678 mmHg 43%
    21:00 +14°C° 0 mm 1 m/S 678 mmHg 46%
    22:00 +14°C° 0 mm 1 m/S 678 mmHg 46%
    23:00 +13°C° 0 mm 1 m/S 678 mmHg 47%
    Mehr zeigen